| time (UTC) | temp F | wind direction | speed knots | gust knots | rain 1hr in | rain 24hr in | rain mn in | humidity % | barometer mb |
| 20260507023246 | 44 | 330 | 0.0 | 0.0 | 0.00 | 1.28 | 1.28 | 99 | 1009.0 |
| 20260507022743 | 44 | 330 | 0.0 | 0.0 | 0.00 | 1.28 | 1.28 | 99 | 1009.0 |
| 20260507022239 | 44 | 330 | 0.0 | 0.0 | 0.00 | 1.28 | 1.28 | 99 | 1008.6 |
| 20260507021736 | 44 | 329 | 0.0 | 0.0 | 0.00 | 1.28 | 1.28 | 99 | 1009.0 |
| 20260507021231 | 44 | 328 | 0.0 | 0.0 | 0.00 | 1.28 | 1.28 | 99 | 1009.1 |
| 20260507020730 | 44 | 327 | 0.0 | 0.0 | 0.00 | 1.28 | 1.28 | 99 | 1009.1 |
| 20260507020226 | 44 | 332 | 0.0 | 0.0 | 0.00 | 1.28 | 1.28 | 99 | 1009.1 |
| 20260507015724 | 44 | 329 | 0.0 | 0.0 | 0.07 | 1.28 | 1.28 | 99 | 1009.1 |
| 20260507015221 | 44 | 319 | 0.0 | 0.0 | 0.07 | 1.28 | 1.28 | 99 | 1009.1 |
| 20260507014717 | 44 | 318 | 0.0 | 0.0 | 0.00 | 1.27 | 1.27 | 99 | 1009.1 |
| 20260507014214 | 44 | 338 | 0.0 | 0.0 | 0.00 | 1.27 | 1.27 | 99 | 1008.8 |
| 20260507013710 | 44 | 338 | 0.0 | 0.0 | 0.00 | 1.27 | 1.27 | 99 | 1008.7 |
| 20260507013208 | 44 | 339 | 0.0 | 0.0 | 0.00 | 1.27 | 1.27 | 99 | 1008.7 |
| 20260507012705 | 44 | 338 | 0.0 | 0.0 | 0.07 | 1.27 | 1.27 | 99 | 1008.7 |
| 20260507012200 | 44 | 338 | 0.0 | 0.0 | 0.07 | 1.27 | 1.27 | 99 | 1008.6 |
| 20260507011659 | 44 | 338 | 0.0 | 0.0 | 0.00 | 1.26 | 1.26 | 99 | 1008.7 |
| 20260507011155 | 44 | 338 | 0.0 | 0.0 | 0.00 | 1.26 | 1.26 | 99 | 1008.7 |
| 20260507010654 | 44 | 337 | 0.0 | 0.0 | 0.05 | 1.26 | 1.26 | 99 | 1008.8 |
| 20260507010150 | 44 | 317 | 0.0 | 0.0 | 0.05 | 1.26 | 1.26 | 99 | 1008.6 |
| 20260507005649 | 44 | 312 | 0.0 | 0.0 | 0.07 | 1.25 | 1.25 | 99 | 1008.6 |
| 20260507005144 | 45 | 333 | 0.0 | 0.0 | 0.07 | 1.25 | 1.25 | 99 | 1008.7 |
| 20260507004641 | 45 | 333 | 0.0 | 0.0 | 0.00 | 1.24 | 1.24 | 99 | 1008.3 |
| 20260507004139 | 45 | 334 | 0.0 | 0.0 | 0.05 | 1.24 | 1.24 | 99 | 1008.5 |
| 20260507003635 | 45 | 330 | 0.0 | 0.0 | 0.05 | 1.24 | 1.24 | 99 | 1008.6 |
| 20260507003130 | 44 | 331 | 0.0 | 0.0 | 0.00 | 1.23 | 1.23 | 99 | 1008.6 |
| 20260507002627 | 45 | 326 | 0.0 | 0.0 | 0.00 | 1.23 | 1.23 | 99 | 1008.2 |
| 20260507002122 | 44 | 326 | 0.0 | 0.0 | 0.00 | 1.23 | 1.23 | 99 | 1008.2 |
| 20260507001620 | 44 | 326 | 0.0 | 0.0 | 0.00 | 1.23 | 1.23 | 99 | 1007.9 |
| 20260507001117 | 44 | 322 | 0.0 | 0.9 | 0.00 | 1.23 | 1.23 | 99 | 1007.8 |
| 20260507000613 | 44 | 276 | 0.9 | 0.9 | 0.00 | 1.23 | 1.23 | 99 | 1007.9 |
| 20260507000108 | 44 | 316 | 0.0 | 0.0 | 0.00 | 1.23 | 1.23 | 99 | 1007.5 |
| 20260506235606 | 44 | 315 | 0.0 | 0.0 | 0.07 | 1.23 | 1.23 | 99 | 1007.6 |
| 20260506235106 | 44 | 315 | 0.0 | 0.0 | 0.07 | 1.23 | 1.23 | 99 | 1007.6 |
| 20260506234604 | 44 | 329 | 0.0 | 0.0 | 0.00 | 1.22 | 1.22 | 99 | 1007.3 |
| 20260506234101 | 44 | 321 | 0.0 | 0.0 | 0.00 | 1.22 | 1.22 | 99 | 1007.2 |
| 20260506233558 | 44 | 329 | 0.0 | 0.0 | 0.05 | 1.22 | 1.22 | 99 | 1007.2 |
| 20260506233055 | 44 | 285 | 0.9 | 1.7 | 0.05 | 1.22 | 1.22 | 99 | 1007.2 |
| 20260506232551 | 44 | 317 | 0.0 | 0.9 | 0.00 | 1.21 | 1.21 | 99 | 1007.3 |
| 20260506232046 | 44 | 300 | 0.9 | 0.9 | 0.00 | 1.21 | 1.21 | 99 | 1007.3 |
| 20260506231544 | 44 | 343 | 0.9 | 0.9 | 0.07 | 1.21 | 1.21 | 99 | 1007.1 |
| 20260506231042 | 44 | 43 | 0.0 | 0.9 | 0.07 | 1.21 | 1.21 | 99 | 1006.7 |
| 20260506230538 | 44 | 11 | 0.9 | 0.9 | 0.00 | 1.20 | 1.20 | 99 | 1006.7 |
| 20260506230035 | 44 | 293 | 0.0 | 0.9 | 0.00 | 1.20 | 1.20 | 99 | 1006.3 |
| 20260506225532 | 45 | 0 | 1.7 | 1.7 | 0.00 | 1.20 | 1.20 | 99 | 1006.3 |
| 20260506225028 | 45 | 299 | 0.0 | 0.0 | 0.00 | 1.20 | 1.20 | 99 | 1006.2 |
| 20260506224525 | 46 | 347 | 0.0 | 0.0 | 0.00 | 1.20 | 1.20 | 99 | 1006.4 |
| 20260506224022 | 46 | 50 | 0.9 | 1.7 | 0.00 | 1.20 | 1.20 | 99 | 1006.4 |
| 20260506223518 | 46 | 288 | 0.9 | 0.9 | 0.00 | 1.20 | 1.20 | 99 | 1005.8 |
| 20260506223014 | 46 | 319 | 0.0 | 0.0 | 0.00 | 1.20 | 1.20 | 99 | 1005.8 |
| 20260506222511 | 46 | 313 | 0.0 | 0.0 | 0.00 | 1.20 | 1.20 | 99 | 1005.8 |
| 20260506222008 | 46 | 313 | 0.0 | 0.0 | 0.00 | 1.20 | 1.20 | 99 | 1005.7 |
| 20260506221505 | 46 | 285 | 0.9 | 0.9 | 0.00 | 1.20 | 1.20 | 99 | 1005.6 |
| 20260506221003 | 46 | 309 | 0.9 | 0.9 | 0.00 | 1.20 | 1.20 | 99 | 1005.6 |
| 20260506220458 | 46 | 334 | 0.0 | 0.0 | 0.05 | 1.20 | 1.20 | 99 | 1005.7 |
| 20260506215954 | 46 | 330 | 0.0 | 0.0 | 0.05 | 1.20 | 1.20 | 99 | 1005.7 |
| 20260506215451 | 46 | 326 | 0.0 | 0.0 | 0.00 | 1.19 | 1.19 | 99 | 1005.7 |
| 20260506214947 | 46 | 112 | 0.9 | 0.9 | 0.00 | 1.19 | 1.19 | 99 | 1005.3 |
| 20260506214444 | 46 | 307 | 0.9 | 0.9 | 0.00 | 1.19 | 1.19 | 99 | 1005.4 |
| 20260506213942 | 46 | 336 | 0.0 | 0.9 | 0.00 | 1.19 | 1.19 | 99 | 1005.5 |
| 20260506213439 | 46 | 316 | 0.9 | 0.9 | 0.00 | 1.19 | 1.19 | 99 | 1005.2 |
| 20260506212936 | 46 | 350 | 0.0 | 0.0 | 0.00 | 1.19 | 1.19 | 99 | 1005.3 |
| 20260506212432 | 46 | 309 | 0.9 | 0.9 | 0.07 | 1.19 | 1.19 | 99 | 1005.2 |
| 20260506211932 | 46 | 343 | 0.0 | 0.0 | 0.07 | 1.19 | 1.19 | 99 | 1004.9 |
| 20260506211428 | 46 | 349 | 0.9 | 0.9 | 0.05 | 1.18 | 1.18 | 99 | 1004.8 |
| 20260506210926 | 46 | 316 | 0.9 | 0.9 | 0.05 | 1.18 | 1.18 | 99 | 1005.0 |
| 20260506210422 | 46 | 283 | 0.9 | 0.9 | 0.00 | 1.17 | 1.17 | 99 | 1004.9 |
| 20260506205919 | 46 | 334 | 0.0 | 0.0 | 0.07 | 1.17 | 1.17 | 99 | 1004.9 |
| 20260506205415 | 46 | 309 | 0.0 | 0.9 | 0.07 | 1.17 | 1.17 | 99 | 1005.1 |
| 20260506204912 | 46 | 313 | 0.0 | 0.9 | 0.12 | 1.16 | 1.16 | 99 | 1004.6 |
| 20260506204410 | 46 | 298 | 0.0 | 0.0 | 0.19 | 1.16 | 1.16 | 99 | 1004.5 |
| 20260506203907 | 46 | 100 | 0.9 | 0.9 | 0.19 | 1.15 | 1.15 | 99 | 1004.5 |
| 20260506203404 | 46 | 330 | 0.0 | 0.0 | 0.05 | 1.13 | 1.13 | 99 | 1004.7 |
| 20260506202901 | 46 | 328 | 0.0 | 0.9 | 0.07 | 1.12 | 1.12 | 99 | 1004.7 |
| 20260506202358 | 46 | 18 | 0.9 | 0.9 | 0.12 | 1.12 | 1.12 | 99 | 1004.8 |
| 20260506201854 | 46 | 338 | 0.0 | 0.0 | 0.12 | 1.11 | 1.11 | 99 | 1005.0 |
| 20260506201352 | 46 | 268 | 0.9 | 0.9 | 0.12 | 1.10 | 1.10 | 99 | 1004.9 |
| 20260506200848 | 46 | 324 | 0.9 | 0.9 | 0.12 | 1.09 | 1.09 | 99 | 1004.8 |
| 20260506200344 | 47 | 131 | 0.9 | 0.9 | 0.07 | 1.08 | 1.08 | 99 | 1004.7 |
| 20260506195841 | 47 | 291 | 0.9 | 1.7 | 0.00 | 1.07 | 1.07 | 99 | 1004.7 |
| 20260506195338 | 47 | 5 | 0.0 | 0.0 | 0.00 | 1.07 | 1.07 | 99 | 1004.9 |
| 20260506194835 | 47 | 315 | 0.9 | 0.9 | 0.00 | 1.07 | 1.07 | 99 | 1004.8 |
| 20260506194331 | 48 | 340 | 0.0 | 0.0 | 0.00 | 1.07 | 1.07 | 99 | 1004.7 |
| 20260506193829 | 48 | 270 | 0.0 | 0.0 | 0.00 | 1.07 | 1.07 | 99 | 1004.8 |
| 20260506193326 | 48 | 263 | 0.0 | 0.9 | 0.00 | 1.07 | 1.07 | 99 | 1004.9 |
| 20260506192822 | 49 | 322 | 1.7 | 2.6 | 0.05 | 1.07 | 1.07 | 99 | 1004.9 |
| 20260506192319 | 49 | 338 | 0.0 | 0.9 | 0.12 | 1.07 | 1.07 | 99 | 1004.8 |
| 20260506191816 | 49 | 334 | 0.0 | 0.0 | 0.24 | 1.06 | 1.06 | 99 | 1004.8 |
| 20260506191312 | 50 | 331 | 0.0 | 0.0 | 0.31 | 1.05 | 1.05 | 99 | 1004.9 |
| 20260506190809 | 49 | 295 | 0.9 | 0.9 | 0.19 | 1.02 | 1.02 | 99 | 1004.7 |
| 20260506190306 | 50 | 6 | 1.7 | 2.6 | 0.12 | 1.00 | 1.00 | 99 | 1004.6 |
| 20260506185803 | 52 | 139 | 0.9 | 0.9 | 0.19 | 0.99 | 0.99 | 99 | 1004.4 |
| 20260506185259 | 52 | 334 | 0.0 | 0.0 | 0.28 | 0.98 | 0.98 | 99 | 1004.4 |
| 20260506184757 | 53 | 180 | 0.9 | 1.7 | 0.28 | 0.96 | 0.96 | 99 | 1004.2 |
| 20260506184254 | 54 | 324 | 0.9 | 0.9 | 0.12 | 0.93 | 0.93 | 99 | 1004.1 |
| 20260506183751 | 54 | 338 | 2.6 | 2.6 | 0.07 | 0.91 | 0.91 | 99 | 1004.1 |
| 20260506183251 | 57 | 76 | 1.7 | 1.7 | 0.07 | 0.91 | 0.91 | 99 | 1004.1 |
| 20260506182749 | 58 | 309 | 0.9 | 0.9 | 0.07 | 0.90 | 0.90 | 99 | 1004.1 |
| 20260506182246 | 59 | 301 | 0.0 | 0.0 | 0.12 | 0.90 | 0.90 | 99 | 1004.0 |
| 20260506181744 | 59 | 316 | 0.9 | 0.9 | 0.05 | 0.89 | 0.89 | 99 | 1003.9 |
| 20260506181241 | 59 | 317 | 1.7 | 1.7 | 0.07 | 0.88 | 0.88 | 99 | 1004.2 |
| 20260506180738 | 59 | 68 | 0.9 | 0.9 | 0.07 | 0.88 | 0.88 | 99 | 1004.1 |
| 20260506180234 | 59 | 327 | 0.0 | 0.0 | 0.05 | 0.87 | 0.87 | 99 | 1004.1 |
| 20260506175730 | 59 | 340 | 0.9 | 0.9 | 0.12 | 0.87 | 0.87 | 99 | 1004.2 |
| 20260506175227 | 59 | 316 | 0.0 | 0.0 | 0.12 | 0.86 | 0.86 | 99 | 1004.2 |
| 20260506174725 | 59 | 332 | 0.0 | 0.0 | 0.12 | 0.85 | 0.85 | 99 | 1004.1 |
| 20260506174221 | 59 | 315 | 0.0 | 0.0 | 0.12 | 0.84 | 0.84 | 99 | 1004.2 |
| 20260506173719 | 59 | 338 | 0.0 | 0.0 | 0.05 | 0.83 | 0.83 | 99 | 1004.3 |
| 20260506173216 | 58 | 318 | 0.0 | 0.0 | 0.12 | 0.83 | 0.83 | 99 | 1004.3 |
| 20260506172713 | 58 | 332 | 0.0 | 0.0 | 0.12 | 0.82 | 0.82 | 99 | 1004.3 |
| 20260506172209 | 58 | 338 | 0.0 | 0.0 | 0.17 | 0.81 | 0.81 | 99 | 1004.3 |
| 20260506171707 | 58 | 336 | 0.0 | 0.0 | 0.26 | 0.80 | 0.80 | 99 | 1004.4 |
| 20260506171204 | 58 | 349 | 0.0 | 0.0 | 0.19 | 0.78 | 0.78 | 99 | 1004.4 |
| 20260506170702 | 58 | 342 | 0.0 | 0.0 | 0.24 | 0.77 | 0.77 | 99 | 1004.6 |
| 20260506170158 | 58 | 343 | 0.0 | 0.0 | 0.24 | 0.75 | 0.75 | 99 | 1004.7 |
| 20260506165657 | 58 | 342 | 0.0 | 0.0 | 0.19 | 0.73 | 0.73 | 99 | 1004.7 |
| 20260506165153 | 58 | 346 | 0.0 | 0.0 | 0.17 | 0.72 | 0.72 | 99 | 1004.7 |
| 20260506164650 | 57 | 341 | 0.0 | 0.0 | 0.17 | 0.70 | 0.70 | 99 | 1005.2 |
| 20260506164148 | 57 | 340 | 0.0 | 0.0 | 0.12 | 0.68 | 0.68 | 99 | 1005.1 |
| 20260506163644 | 57 | 345 | 0.0 | 0.0 | 0.19 | 0.67 | 0.67 | 99 | 1004.9 |
| 20260506163139 | 58 | 336 | 0.0 | 0.0 | 0.24 | 0.66 | 0.66 | 99 | 1004.9 |
| 20260506162635 | 57 | 339 | 0.0 | 0.0 | 0.24 | 0.64 | 0.64 | 99 | 1005.1 |
| 20260506162133 | 57 | 334 | 0.0 | 0.0 | 0.24 | 0.62 | 0.62 | 99 | 1005.2 |
| 20260506161630 | 57 | 320 | 0.0 | 0.9 | 0.24 | 0.60 | 0.60 | 99 | 1005.3 |
| 20260506161127 | 57 | 311 | 0.0 | 0.0 | 0.17 | 0.57 | 0.57 | 99 | 1005.4 |
| 20260506160625 | 57 | 319 | 0.0 | 0.0 | 0.12 | 0.55 | 0.55 | 99 | 1005.5 |
| 20260506160121 | 57 | 315 | 0.0 | 0.9 | 0.12 | 0.54 | 0.54 | 99 | 1005.4 |
| 20260506155620 | 57 | 318 | 0.0 | 0.0 | 0.19 | 0.53 | 0.53 | 99 | 1005.5 |
| 20260506155116 | 58 | 344 | 0.0 | 0.0 | 0.12 | 0.48 | 0.48 | 99 | 1005.8 |
| 20260506153219 | 57 | 343 | 0.0 | 0.0 | 0.19 | 0.47 | 0.47 | 99 | 1005.7 |
| 20260506152715 | 57 | 345 | 0.0 | 0.0 | 0.17 | 0.46 | 0.46 | 99 | 1005.6 |
| 20260506152213 | 57 | 335 | 0.0 | 0.0 | 0.19 | 0.45 | 0.45 | 99 | 1005.6 |
| 20260506151712 | 57 | 342 | 0.0 | 0.0 | 0.19 | 0.43 | 0.43 | 99 | 1005.8 |
| 20260506151208 | 57 | 343 | 0.0 | 0.0 | 0.19 | 0.42 | 0.42 | 99 | 1005.9 |
| 20260506150704 | 57 | 343 | 0.0 | 0.0 | 0.19 | 0.40 | 0.40 | 99 | 1005.9 |
| 20260506150202 | 57 | 343 | 0.0 | 0.0 | 0.24 | 0.39 | 0.39 | 99 | 1006.0 |
| 20260506145659 | 57 | 344 | 0.0 | 0.0 | 0.24 | 0.37 | 0.37 | 99 | 1006.2 |
| 20260506145155 | 57 | 344 | 0.0 | 0.0 | 0.24 | 0.35 | 0.35 | 99 | 1006.4 |
| 20260506144653 | 57 | 340 | 0.0 | 0.0 | 0.17 | 0.33 | 0.33 | 99 | 1006.4 |
| 20260506144149 | 57 | 342 | 0.0 | 0.0 | 0.19 | 0.32 | 0.32 | 99 | 1006.3 |
| 20260506143647 | 57 | 323 | 0.0 | 0.0 | 0.12 | 0.29 | 0.29 | 99 | 1006.5 |
| 20260506143145 | 57 | 323 | 0.0 | 0.0 | 0.14 | 0.28 | 0.28 | 99 | 1006.7 |
| 20260506142643 | 57 | 321 | 0.0 | 0.0 | 0.12 | 0.27 | 0.27 | 99 | 1006.9 |
| 20260506142140 | 57 | 317 | 0.0 | 0.0 | 0.17 | 0.26 | 0.26 | 99 | 1006.9 |
| 20260506141638 | 57 | 318 | 0.0 | 0.0 | 0.19 | 0.25 | 0.25 | 99 | 1006.8 |
| 20260506141136 | 57 | 316 | 0.0 | 0.0 | 0.24 | 0.24 | 0.24 | 99 | 1006.7 |
| 20260506140633 | 57 | 315 | 0.0 | 0.0 | 0.17 | 0.22 | 0.22 | 99 | 1006.6 |
| 20260506140130 | 57 | 336 | 0.0 | 0.0 | 0.12 | 0.20 | 0.20 | 99 | 1006.2 |
| 20260506135627 | 56 | 337 | 0.0 | 0.0 | 0.12 | 0.19 | 0.19 | 99 | 1006.3 |
| 20260506135123 | 56 | 323 | 0.0 | 0.0 | 0.12 | 0.18 | 0.18 | 99 | 1006.4 |
| 20260506134620 | 56 | 337 | 0.0 | 0.0 | 0.12 | 0.17 | 0.17 | 99 | 1006.5 |
| 20260506134116 | 56 | 280 | 0.0 | 0.9 | 0.12 | 0.16 | 0.16 | 99 | 1006.4 |
| 20260506133614 | 56 | 345 | 0.0 | 0.0 | 0.14 | 0.15 | 0.15 | 99 | 1006.1 |
| 20260506133110 | 56 | 292 | 0.0 | 0.0 | 0.12 | 0.14 | 0.14 | 99 | 1006.5 |
| 20260506132608 | 56 | 317 | 0.0 | 0.0 | 0.12 | 0.13 | 0.13 | 99 | 1006.3 |
| 20260506132105 | 56 | 278 | 0.0 | 0.0 | 0.19 | 0.12 | 0.12 | 99 | 1006.2 |
| 20260506131602 | 56 | 309 | 0.0 | 0.0 | 0.12 | 0.11 | 0.11 | 99 | 1006.3 |
| 20260506131058 | 56 | 308 | 0.0 | 0.0 | 0.12 | 0.10 | 0.10 | 99 | 1006.4 |
| 20260506130555 | 56 | 356 | 0.0 | 0.0 | 0.12 | 0.09 | 0.09 | 99 | 1006.4 |
| 20260506130053 | 56 | 317 | 0.0 | 0.0 | 0.12 | 0.08 | 0.08 | 99 | 1006.8 |
| 20260506125551 | 56 | 319 | 0.0 | 0.0 | 0.12 | 0.07 | 0.07 | 99 | 1006.7 |
| 20260506125048 | 56 | 323 | 0.0 | 0.0 | 0.07 | 0.06 | 0.06 | 99 | 1006.8 |
| 20260506124546 | 56 | 315 | 0.0 | 0.0 | 0.05 | 0.05 | 0.05 | 99 | 1006.6 |
| 20260506124044 | 56 | 2 | 0.0 | 0.9 | 0.05 | 0.05 | 0.05 | 99 | 1006.7 |
| 20260506123541 | 56 | 349 | 0.0 | 0.0 | 0.07 | 0.04 | 0.04 | 99 | 1007.0 |
| 20260506123039 | 56 | 342 | 0.0 | 0.0 | 0.07 | 0.04 | 0.04 | 99 | 1007.2 |
| 20260506122535 | 56 | 317 | 0.0 | 0.0 | 0.00 | 0.03 | 0.03 | 99 | 1007.1 |
| 20260506122034 | 55 | 313 | 0.0 | 0.0 | 0.00 | 0.03 | 0.03 | 99 | 1007.2 |
| 20260506121531 | 55 | 328 | 0.0 | 0.0 | 0.00 | 0.03 | 0.03 | 99 | 1007.3 |
| 20260506121027 | 55 | 326 | 0.0 | 0.0 | 0.05 | 0.03 | 0.03 | 99 | 1007.0 |
| 20260506120525 | 55 | 334 | 0.0 | 0.0 | 0.05 | 0.03 | 0.03 | 99 | 1006.8 |
| 20260506120022 | 55 | 349 | 0.0 | 0.0 | 0.00 | 0.02 | 0.02 | 99 | 1006.8 |
| 20260506115520 | 55 | 303 | 0.0 | 0.0 | 0.00 | 0.02 | 0.02 | 99 | 1006.6 |
| 20260506115018 | 55 | 318 | 0.0 | 0.0 | 0.00 | 0.02 | 0.02 | 99 | 1006.6 |
| 20260506114515 | 55 | 265 | 1.7 | 1.7 | 0.00 | 0.02 | 0.02 | 99 | 1006.5 |
| 20260506114014 | 55 | 35 | 0.9 | 0.9 | 0.00 | 0.02 | 0.02 | 99 | 1006.2 |
| 20260506113511 | 55 | 354 | 0.9 | 0.9 | 0.00 | 0.02 | 0.02 | 99 | 1006.7 |
| 20260506113008 | 55 | 355 | 0.0 | 0.0 | 0.00 | 0.02 | 0.02 | 99 | 1006.6 |
| 20260506112505 | 55 | 356 | 0.0 | 0.0 | 0.00 | 0.02 | 0.02 | 99 | 1006.5 |
| 20260506112002 | 55 | 352 | 0.0 | 0.0 | 0.00 | 0.02 | 0.02 | 99 | 1006.7 |
| 20260506111500 | 55 | 352 | 0.0 | 0.0 | 0.00 | 0.02 | 0.02 | 99 | 1006.8 |
| 20260506110957 | 55 | 351 | 0.0 | 0.0 | 0.00 | 0.02 | 0.02 | 99 | 1006.7 |
| 20260506110455 | 55 | 352 | 0.0 | 0.0 | 0.00 | 0.02 | 0.02 | 99 | 1006.3 |
| 20260506105951 | 55 | 352 | 0.0 | 0.0 | 0.00 | 0.02 | 0.02 | 99 | 1006.3 |
| 20260506105447 | 55 | 352 | 0.0 | 0.0 | 0.00 | 0.02 | 0.02 | 99 | 1006.4 |
| 20260506104945 | 55 | 350 | 0.0 | 0.0 | 0.00 | 0.02 | 0.02 | 99 | 1006.5 |
| 20260506104443 | 55 | 350 | 0.0 | 0.0 | 0.00 | 0.02 | 0.02 | 99 | 1006.6 |
| 20260506103941 | 55 | 350 | 0.0 | 0.0 | 0.00 | 0.02 | 0.02 | 99 | 1006.2 |
| 20260506103438 | 55 | 350 | 0.0 | 0.0 | 0.00 | 0.02 | 0.02 | 99 | 1006.4 |
| 20260506102935 | 54 | 351 | 0.0 | 0.0 | 0.00 | 0.02 | 0.02 | 99 | 1006.3 |
| 20260506102433 | 54 | 351 | 0.0 | 0.0 | 0.00 | 0.02 | 0.02 | 99 | 1006.4 |
| 20260506101930 | 54 | 352 | 0.0 | 0.0 | 0.00 | 0.02 | 0.02 | 99 | 1005.9 |
| 20260506101426 | 54 | 351 | 0.0 | 0.0 | 0.00 | 0.02 | 0.02 | 99 | 1006.2 |
| 20260506100924 | 54 | 351 | 0.0 | 0.0 | 0.00 | 0.02 | 0.02 | 99 | 1006.0 |
| 20260506100422 | 54 | 351 | 0.0 | 0.0 | 0.00 | 0.02 | 0.02 | 99 | 1006.3 |
| 20260506095920 | 54 | 351 | 0.0 | 0.0 | 0.00 | 0.02 | 0.02 | 99 | 1006.2 |
| 20260506095418 | 54 | 351 | 0.0 | 0.0 | 0.00 | 0.02 | 0.02 | 99 | 1006.5 |
| 20260506094913 | 54 | 351 | 0.0 | 0.0 | 0.00 | 0.02 | 0.02 | 99 | 1006.4 |
| 20260506094413 | 54 | 351 | 0.0 | 0.0 | 0.00 | 0.02 | 0.02 | 99 | 1006.1 |
| 20260506093910 | 54 | 351 | 0.0 | 0.0 | 0.00 | 0.02 | 0.02 | 99 | 1005.9 |
| 20260506093407 | 54 | 351 | 0.0 | 0.0 | 0.00 | 0.02 | 0.02 | 99 | 1006.2 |
| 20260506092905 | 54 | 351 | 0.0 | 0.0 | 0.00 | 0.02 | 0.02 | 99 | 1006.0 |
| 20260506092403 | 54 | 351 | 0.0 | 0.0 | 0.00 | 0.02 | 0.02 | 99 | 1006.1 |
| 20260506091859 | 54 | 351 | 0.0 | 0.0 | 0.00 | 0.02 | 0.02 | 99 | 1006.3 |
| 20260506091357 | 54 | 351 | 0.0 | 0.0 | 0.00 | 0.02 | 0.02 | 99 | 1006.3 |
| 20260506090854 | 54 | 351 | 0.0 | 0.0 | 0.00 | 0.02 | 0.02 | 99 | 1006.2 |
| 20260506090352 | 54 | 351 | 0.0 | 0.0 | 0.00 | 0.02 | 0.02 | 99 | 1006.2 |
| 20260506085848 | 54 | 351 | 0.0 | 0.0 | 0.00 | 0.02 | 0.02 | 99 | 1006.1 |
| 20260506085345 | 55 | 351 | 0.0 | 0.0 | 0.00 | 0.02 | 0.02 | 99 | 1006.5 |
| 20260506084841 | 55 | 351 | 0.0 | 0.0 | 0.00 | 0.02 | 0.02 | 99 | 1006.5 |
| 20260506084338 | 55 | 351 | 0.0 | 0.0 | 0.00 | 0.02 | 0.02 | 99 | 1006.4 |
| 20260506083835 | 54 | 351 | 0.0 | 0.0 | 0.00 | 0.02 | 0.02 | 99 | 1006.5 |
| 20260506083332 | 55 | 351 | 0.0 | 0.0 | 0.00 | 0.02 | 0.02 | 99 | 1006.7 |
| 20260506082829 | 55 | 351 | 0.0 | 0.0 | 0.00 | 0.02 | 0.02 | 99 | 1006.8 |
| 20260506082326 | 55 | 351 | 0.0 | 0.0 | 0.00 | 0.02 | 0.02 | 99 | 1006.9 |
| 20260506081822 | 55 | 351 | 0.0 | 0.0 | 0.00 | 0.02 | 0.02 | 99 | 1006.6 |
| 20260506081320 | 55 | 351 | 0.0 | 0.0 | 0.00 | 0.02 | 0.02 | 99 | 1006.8 |
| 20260506080817 | 55 | 351 | 0.0 | 0.9 | 0.00 | 0.02 | 0.02 | 99 | 1006.8 |
| 20260506080314 | 55 | 352 | 0.0 | 0.0 | 0.00 | 0.02 | 0.02 | 99 | 1007.0 |
| 20260506073258 | 55 | 351 | 0.0 | 0.0 | 0.00 | 0.02 | 0.02 | 99 | 1007.0 |
| 20260506072755 | 55 | 351 | 0.0 | 0.0 | 0.00 | 0.02 | 0.02 | 99 | 1006.9 |
| 20260506072252 | 55 | 351 | 0.0 | 0.0 | 0.00 | 0.02 | 0.02 | 99 | 1006.9 |
| 20260506071750 | 55 | 351 | 0.0 | 0.0 | 0.00 | 0.02 | 0.02 | 99 | 1006.9 |
| 20260506071248 | 55 | 351 | 0.0 | 0.0 | 0.00 | 0.02 | 0.02 | 99 | 1007.0 |
| 20260506070744 | 56 | 351 | 0.0 | 0.0 | 0.00 | 0.02 | 0.02 | 99 | 1006.9 |
| 20260506070241 | 56 | 351 | 0.0 | 0.0 | 0.00 | 0.02 | 0.02 | 99 | 1007.0 |
| 20260506062218 | 56 | 351 | 0.0 | 0.0 | 0.00 | 0.02 | 0.02 | 99 | 1007.4 |
| 20260506061714 | 56 | 351 | 0.0 | 0.0 | 0.00 | 0.02 | 0.02 | 99 | 1007.2 |
| 20260506061212 | 56 | 351 | 0.0 | 0.0 | 0.00 | 0.02 | 0.02 | 99 | 1007.0 |
| 20260506060711 | 56 | 351 | 0.0 | 0.9 | 0.00 | 0.02 | 0.02 | 99 | 1007.2 |
| 20260506060207 | 56 | 351 | 0.9 | 0.9 | 0.00 | 0.02 | 0.02 | 99 | 1007.0 |
| 20260506051139 | 57 | 351 | 0.0 | 0.0 | 0.00 | 0.02 | 0.02 | 99 | 1007.5 |
| 20260506050638 | 58 | 351 | 0.0 | 0.0 | 0.00 | 0.02 | 0.02 | 99 | 1007.5 |
| 20260506050134 | 58 | 355 | 0.0 | 0.9 | 0.07 | 0.02 | 0.02 | 99 | 1007.7 |
| 20260506045127 | 57 | 321 | 0.0 | 0.0 | 0.00 | 0.01 | 0.01 | 99 | 1008.0 |
| 20260506044625 | 58 | 320 | 0.0 | 0.0 | 0.00 | 0.01 | 0.01 | 99 | 1008.3 |
| 20260506044122 | 57 | 319 | 0.9 | 0.9 | 0.00 | 0.01 | 0.01 | 99 | 1008.0 |
| 20260506043619 | 57 | 330 | 0.9 | 0.9 | 0.07 | 0.01 | 0.01 | 99 | 1007.5 |
| 20260506043117 | 57 | 336 | 0.0 | 0.0 | 0.07 | 0.01 | 0.01 | 99 | 1007.7 |
| 20260506042616 | 57 | 314 | 0.0 | 0.0 | 0.00 | 0.00 | 0.00 | 99 | 1007.8 |
| 20260506042114 | 57 | 340 | 0.0 | 0.0 | 0.00 | 0.00 | 0.00 | 99 | 1007.7 |
| 20260506041612 | 57 | 355 | 0.0 | 0.0 | 0.00 | 0.00 | 0.00 | 99 | 1007.1 |
| 20260506041108 | 57 | 341 | 0.0 | 0.0 | 0.00 | 0.00 | 0.00 | 99 | 1007.3 |
| 20260506040606 | 57 | 4 | 0.0 | 0.0 | 0.00 | 0.00 | 0.00 | 99 | 1007.2 |
| 20260506035559 | 57 | 345 | 0.0 | 0.9 | 0.00 | 0.07 | 0.07 | 99 | 1007.5 |
| 20260506035056 | 57 | 345 | 0.0 | 0.0 | 0.00 | 0.07 | 0.07 | 99 | 1007.2 |
| 20260506034553 | 58 | 345 | 0.0 | 0.0 | 0.00 | 0.07 | 0.07 | 99 | 1007.4 |
| 20260506034050 | 58 | 345 | 0.0 | 0.0 | 0.00 | 0.07 | 0.07 | 99 | 1007.4 |
| 20260506033548 | 58 | 344 | 0.0 | 0.0 | 0.00 | 0.07 | 0.07 | 99 | 1007.3 |
| 20260506033044 | 58 | 344 | 0.0 | 0.0 | 0.00 | 0.07 | 0.07 | 99 | 1007.2 |
| 20260506032542 | 58 | 345 | 0.0 | 0.0 | 0.00 | 0.07 | 0.07 | 99 | 1007.0 |
| 20260506032038 | 58 | 345 | 0.0 | 0.0 | 0.00 | 0.07 | 0.07 | 98 | 1007.1 |
| 20260506031536 | 59 | 345 | 0.0 | 0.0 | 0.00 | 0.07 | 0.07 | 97 | 1007.0 |
| 20260506031033 | 59 | 345 | 0.0 | 0.0 | 0.00 | 0.07 | 0.07 | 95 | 1006.9 |
| 20260506030531 | 59 | 346 | 0.9 | 0.9 | 0.00 | 0.07 | 0.07 | 97 | 1007.0 |
| 20260506030028 | 58 | 346 | 0.0 | 0.9 | 0.00 | 0.07 | 0.07 | 99 | 1006.8 |
| 20260506025525 | 58 | 344 | 0.0 | 0.0 | 0.00 | 0.07 | 0.07 | 99 | 1006.8 |
| 20260506025021 | 58 | 345 | 0.0 | 0.0 | 0.00 | 0.07 | 0.07 | 99 | 1006.8 |
| 20260506024518 | 58 | 345 | 0.0 | 0.0 | 0.00 | 0.07 | 0.07 | 99 | 1006.7 |
| 20260506024014 | 58 | 345 | 0.0 | 0.0 | 0.00 | 0.07 | 0.07 | 99 | 1006.9 |
| 20260506023510 | 58 | 345 | 0.0 | 0.0 | 0.00 | 0.07 | 0.07 | 99 | 1007.0 |